This is the latest recevied weather packets stored in our database for station/object K3TLB-13. If no packets are shown the sender has not sent any weather packets the latest 1 day(s).
| Time | Temp. | Humidity | Pressure | Rain* | Wind** | Luminosity | Snow |
|---|---|---|---|---|---|---|---|
| 1778021040 | 25.56° C | 33% | 1007.6 hPa | 0 mm | 3.13 m/s, 194° | - | - |
| 1778020740 | 25.56° C | 33% | 1007.6 hPa | 0 mm | 2.68 m/s, 213° | - | - |
| 1778020440 | 25.56° C | 33% | 1007.7 hPa | 0 mm | 2.68 m/s, 175° | - | - |
| 1778020140 | 25.56° C | 33% | 1007.6 hPa | 0 mm | 2.24 m/s, 158° | - | - |
| 1778019840 | 25.56° C | 34% | 1007.6 hPa | 0 mm | 2.24 m/s, 197° | - | - |
| 1778019541 | 25.56° C | 34% | 1007.7 hPa | 0 mm | 3.58 m/s, 243° | - | - |
| 1778019242 | 25.56° C | 32% | 1007.9 hPa | 0 mm | 3.58 m/s, 221° | - | - |
| 1778018941 | 26.11° C | 33% | 1007.7 hPa | 0 mm | 3.58 m/s, 197° | - | - |
| 1778018641 | 26.11° C | 34% | 1007.8 hPa | 0 mm | 4.47 m/s, 141° | - | - |
| 1778018341 | 26.11° C | 33% | 1007.7 hPa | 0 mm | 4.47 m/s, 244° | - | - |
| 1778018041 | 26.67° C | 33% | 1007.7 hPa | 0 mm | 4.02 m/s, 198° | - | - |
| 1778017741 | 26.67° C | 33% | 1007.7 hPa | 0 mm | 4.47 m/s, 167° | - | - |
| 1778017441 | 27.22° C | 33% | 1007.7 hPa | 0 mm | 4.47 m/s, 242° | - | - |
| 1778017141 | 27.22° C | 34% | 1007.6 hPa | 0 mm | 4.02 m/s, 188° | - | - |
| 1778016841 | 27.22° C | 34% | 1007.5 hPa | 0 mm | 4.47 m/s, 228° | - | - |
| 1778016541 | 27.22° C | 34% | 1007.5 hPa | 0 mm | 4.47 m/s, 174° | - | - |
| 1778016244 | 26.67° C | 35% | 1007.3 hPa | 0 mm | 4.02 m/s, 145° | - | - |
| 1778015941 | 26.67° C | 34% | 1007.4 hPa | 0 mm | 3.58 m/s, 214° | - | - |
| 1778015641 | 26.67° C | 34% | 1007.4 hPa | 0 mm | 3.13 m/s, 148° | - | - |
| 1778015341 | 26.67° C | 34% | 1007.4 hPa | 0 mm | 4.47 m/s, 193° | - | - |
| 1778015041 | 27.22° C | 34% | 1007.5 hPa | 0 mm | 4.02 m/s, 171° | - | - |
| 1778014741 | 27.22° C | 34% | 1007.4 hPa | 0 mm | 4.02 m/s, 179° | - | - |
| 1778014441 | 27.78° C | 34% | 1007.5 hPa | 0 mm | 4.02 m/s, 233° | - | - |
| 1778014141 | 27.22° C | 36% | 1007.5 hPa | 0 mm | 3.58 m/s, 229° | - | - |
| 1778013841 | 27.22° C | 34% | 1007.5 hPa | 0 mm | 3.58 m/s, 234° | - | - |
* Rain latest hour (hover to see other rain measurements)
** Current wind speed in m/s (hover to see current wind gust speed)